When you browse on this site, cookies collect data to enhance your experience and personalize the content and advertising you see.
Visit our Privacy Policy to learn more. By continuing to use the site, you agree to this use of cookies and data.
  • Em Portugal
  • Lista de países
  • Para 7 dias
  • Temperatura da água
  • Mapas de satélite
  • Mapa do tempo
  • Widgets de tempo
  • user-avatar
    Iniciar Sessão

    Previsão horária em Glybochica

    Hoje, 21 Abril, Domingo

    Tempo Temperatura Precipitação Vento Pressão Humidade
    00:00 +7°C° 0 mm 1 m/s 753 mmHg 75%
    01:00 +6°C° 0 mm 2 m/s 752 mmHg 78%
    02:00 +6°C° 0 mm 2 m/s 752 mmHg 83%
    03:00 +5°C° 0.1 mm 2 m/s 752 mmHg 84%
    04:00 +5°C° 0.1 mm 2 m/s 752 mmHg 86%
    05:00 +5°C° 0.1 mm 2 m/s 752 mmHg 87%
    06:00 +5°C° 0 mm 3 m/s 752 mmHg 81%
    07:00 +6°C° 0 mm 4 m/s 752 mmHg 76%
    08:00 +8°C° 0 mm 5 m/s 752 mmHg 70%
    09:00 +9°C° 0 mm 5 m/s 752 mmHg 66%
    10:00 +10°C° 0 mm 5 m/s 752 mmHg 61%
    11:00 +13°C° 0 mm 6 m/s 753 mmHg 57%
    12:00 +13°C° 0.4 mm 5 m/s 753 mmHg 53%
    13:00 +14°C° 0.4 mm 5 m/s 753 mmHg 49%
    14:00 +15°C° 0 mm 4 m/s 753 mmHg 48%
    15:00 +15°C° 0.1 mm 4 m/s 753 mmHg 46%
    16:00 +15°C° 0.1 mm 4 m/s 753 mmHg 44%
    17:00 +15°C° 0.1 mm 4 m/s 753 mmHg 42%
    18:00 +14°C° 0 mm 4 m/s 753 mmHg 49%
    19:00 +12°C° 0 mm 3 m/s 753 mmHg 56%
    20:00 +10°C° 0 mm 3 m/s 754 mmHg 63%
    21:00 +9°C° 0 mm 3 m/s 754 mmHg 65%
    22:00 +9°C° 0 mm 3 m/s 755 mmHg 68%
    23:00 +8°C° 0 mm 3 m/s 755 mmHg 70%

    Amanhã, 22 Abril, Segunda-feira

    Tempo Temperatura Precipitação Vento Pressão Humidade
    00:00 +7°C° 0 mm 2 m/s 755 mmHg 71%
    01:00 +7°C° 0 mm 2 m/s 756 mmHg 72%
    02:00 +6°C° 0 mm 2 m/s 756 mmHg 73%
    03:00 +6°C° 0 mm 2 m/s 756 mmHg 73%
    04:00 +6°C° 0 mm 2 m/s 757 mmHg 74%
    05:00 +5°C° 0 mm 2 m/s 757 mmHg 75%
    06:00 +7°C° 0 mm 2 m/s 757 mmHg 69%
    07:00 +9°C° 0 mm 2 m/s 758 mmHg 62%
    08:00 +12°C° 0 mm 2 m/s 758 mmHg 56%
    09:00 +14°C° 0 mm 2 m/s 758 mmHg 48%
    10:00 +14°C° 0 mm 3 m/s 758 mmHg 41%
    11:00 +16°C° 0 mm 3 m/s 758 mmHg 33%
    12:00 +17°C° 0 mm 3 m/s 758 mmHg 32%
    13:00 +17°C° 0 mm 3 m/s 758 mmHg 31%
    14:00 +18°C° 0 mm 3 m/s 758 mmHg 30%
    15:00 +17°C° 0 mm 3 m/s 758 mmHg 32%
    16:00 +17°C° 0 mm 3 m/s 758 mmHg 34%
    17:00 +17°C° 0 mm 3 m/s 758 mmHg 36%
    18:00 +15°C° 0 mm 2 m/s 758 mmHg 41%
    19:00 +14°C° 0 mm 2 m/s 758 mmHg 46%
    20:00 +12°C° 0 mm 2 m/s 758 mmHg 51%
    21:00 +12°C° 0 mm 2 m/s 759 mmHg 53%
    22:00 +11°C° 0 mm 1 m/s 759 mmHg 55%
    23:00 +10°C° 0 mm 1 m/s 759 mmHg 56%

    Depois de amanhã, 23 Abril, Terça-feira

    Tempo Temperatura Precipitação Vento Pressão Humidade
    00:00 +9°C° 0 mm 1 m/s 759 mmHg 57%
    01:00 +9°C° 0 mm 1 m/s 759 mmHg 58%
    02:00 +8°C° 0 mm 1 m/s 760 mmHg 60%
    03:00 +8°C° 0 mm 1 m/s 760 mmHg 60%
    04:00 +8°C° 0 mm 1 m/s 760 mmHg 61%
    05:00 +7°C° 0 mm 1 m/s 760 mmHg 62%
    06:00 +9°C° 0 mm 1 m/s 760 mmHg 57%
    07:00 +11°C° 0 mm 1 m/s 760 mmHg 52%
    08:00 +13°C° 0 mm 1 m/s 760 mmHg 46%
    09:00 +15°C° 0 mm 1 m/s 760 mmHg 42%
    10:00 +16°C° 0 mm 2 m/s 760 mmHg 38%
    11:00 +18°C° 0 mm 2 m/s 760 mmHg 33%
    12:00 +18°C° 0 mm 2 m/s 760 mmHg 33%
    13:00 +18°C° 0 mm 2 m/s 760 mmHg 33%
    14:00 +19°C° 0 mm 2 m/s 759 mmHg 32%
    15:00 +18°C° 0 mm 3 m/s 759 mmHg 34%
    16:00 +18°C° 0 mm 3 m/s 759 mmHg 37%
    17:00 +18°C° 0 mm 3 m/s 758 mmHg 39%
    18:00 +16°C° 0 mm 3 m/s 758 mmHg 45%
    19:00 +14°C° 0 mm 2 m/s 758 mmHg 51%
    20:00 +12°C° 0 mm 2 m/s 758 mmHg 57%
    21:00 +12°C° 0 mm 2 m/s 759 mmHg 59%
    22:00 +10°C° 0 mm 2 m/s 759 mmHg 60%
    23:00 +9°C° 0 mm 2 m/s 759 mmHg 61%

    24 Abril, Quarta-feira

    Tempo Temperatura Precipitação Vento Pressão Humidade
    00:00 +9°C° 0 mm 2 m/s 759 mmHg 62%
    01:00 +8°C° 0 mm 2 m/s 759 mmHg 62%
    02:00 +8°C° 0 mm 2 m/s 759 mmHg 62%
    03:00 +8°C° 0 mm 2 m/s 759 mmHg 63%
    04:00 +8°C° 0 mm 1 m/s 759 mmHg 63%
    05:00 +8°C° 0 mm 1 m/s 759 mmHg 64%
    06:00 +10°C° 0 mm 1 m/s 760 mmHg 59%
    07:00 +12°C° 0 mm 2 m/s 760 mmHg 54%
    08:00 +14°C° 0 mm 2 m/s 760 mmHg 50%
    09:00 +15°C° 0 mm 2 m/s 760 mmHg 45%
    10:00 +17°C° 0 mm 3 m/s 760 mmHg 40%
    11:00 +18°C° 0 mm 4 m/s 759 mmHg 35%
    12:00 +19°C° 0 mm 4 m/s 759 mmHg 35%
    13:00 +19°C° 0 mm 4 m/s 759 mmHg 35%
    14:00 +20°C° 0 mm 4 m/s 759 mmHg 35%
    15:00 +19°C° 0 mm 4 m/s 758 mmHg 36%
    16:00 +19°C° 0 mm 4 m/s 758 mmHg 38%
    17:00 +19°C° 0 mm 4 m/s 758 mmHg 39%
    18:00 +17°C° 0 mm 3 m/s 758 mmHg 46%
    19:00 +14°C° 0 mm 3 m/s 758 mmHg 52%
    20:00 +13°C° 0 mm 2 m/s 758 mmHg 58%
    21:00 +13°C° 0 mm 2 m/s 758 mmHg 60%
    22:00 +12°C° 0 mm 2 m/s 758 mmHg 61%
    23:00 +10°C° 0 mm 2 m/s 758 mmHg 63%

    25 Abril, Quinta-feira

    Tempo Temperatura Precipitação Vento Pressão Humidade
    00:00 +10°C° 0 mm 2 m/s 758 mmHg 64%
    01:00 +9°C° 0 mm 2 m/s 758 mmHg 66%
    02:00 +9°C° 0 mm 2 m/s 758 mmHg 67%
    03:00 +9°C° 0 mm 2 m/s 758 mmHg 68%
    04:00 +8°C° 0 mm 2 m/s 758 mmHg 70%
    05:00 +8°C° 0 mm 2 m/s 758 mmHg 71%
    06:00 +10°C° 0 mm 3 m/s 758 mmHg 66%
    07:00 +12°C° 0 mm 3 m/s 758 mmHg 60%
    08:00 +14°C° 0 mm 3 m/s 758 mmHg 55%
    09:00 +15°C° 0 mm 4 m/s 758 mmHg 49%
    10:00 +18°C° 0 mm 4 m/s 758 mmHg 44%
    11:00 +19°C° 0 mm 5 m/s 758 mmHg 39%
    12:00 +20°C° 0 mm 5 m/s 758 mmHg 38%
    13:00 +20°C° 0 mm 5 m/s 757 mmHg 37%
    14:00 +21°C° 0 mm 5 m/s 757 mmHg 36%
    15:00 +21°C° 0 mm 4 m/s 756 mmHg 37%
    16:00 +21°C° 0 mm 4 m/s 756 mmHg 39%
    17:00 +20°C° 0 mm 4 m/s 755 mmHg 40%
    18:00 +18°C° 0 mm 3 m/s 755 mmHg 47%
    19:00 +16°C° 0 mm 3 m/s 755 mmHg 53%
    20:00 +13°C° 0 mm 3 m/s 755 mmHg 60%
    21:00 +13°C° 0 mm 3 m/s 755 mmHg 61%
    22:00 +12°C° 0 mm 3 m/s 754 mmHg 62%
    23:00 +12°C° 0 mm 3 m/s 754 mmHg 63%

    26 Abril, Sexta-feira

    Tempo Temperatura Precipitação Vento Pressão Humidade
    00:00 +11°C° 0 mm 3 m/s 754 mmHg 65%
    01:00 +11°C° 0 mm 3 m/s 754 mmHg 67%
    02:00 +10°C° 0 mm 3 m/s 754 mmHg 70%
    03:00 +10°C° 0 mm 3 m/s 753 mmHg 71%
    04:00 +10°C° 0 mm 3 m/s 753 mmHg 72%
    05:00 +9°C° 0 mm 3 m/s 753 mmHg 73%
    06:00 +11°C° 0 mm 4 m/s 753 mmHg 67%
    07:00 +13°C° 0 mm 4 m/s 752 mmHg 61%
    08:00 +15°C° 0 mm 5 m/s 752 mmHg 55%
    09:00 +16°C° 0 mm 5 m/s 752 mmHg 50%
    10:00 +19°C° 0 mm 5 m/s 751 mmHg 45%
    11:00 +20°C° 0 mm 6 m/s 751 mmHg 39%
    12:00 +21°C° 0 mm 5 m/s 751 mmHg 38%
    13:00 +22°C° 0 mm 5 m/s 750 mmHg 37%
    14:00 +22°C° 0 mm 5 m/s 750 mmHg 35%
    15:00 +22°C° 0 mm 5 m/s 750 mmHg 37%
    16:00 +22°C° 0 mm 4 m/s 749 mmHg 39%
    17:00 +22°C° 0 mm 4 m/s 749 mmHg 41%
    18:00 +20°C° 0 mm 3 m/s 749 mmHg 49%
    19:00 +18°C° 0 mm 3 m/s 749 mmHg 58%
    20:00 +16°C° 0 mm 2 m/s 749 mmHg 66%
    21:00 +15°C° 0.1 mm 2 m/s 749 mmHg 70%
    22:00 +14°C° 0.1 mm 2 m/s 749 mmHg 74%
    23:00 +14°C° 0.1 mm 2 m/s 749 mmHg 78%
    Mostrar mais